[Iaude] MPEC T240: 2023 TK10 [a=2.16,e=0.51,i=6.1,H=22.7]

mpec at marsden.cfa.harvard.edu mpec at marsden.cfa.harvard.edu
Sat Oct 14 04:03:14 EDT 2023


M.P.E.C. 2023-T240                             Issued 2023 October 14, 08:01 UT

     The Minor Planet Electronic Circulars contain information on unusual
         minor planets, routine data on comets and natural satellites,
         and occasional editorial announcements.  They are published
    on behalf of Division F of the International Astronomical Union by the
          Minor Planet Center, Smithsonian Astrophysical Observatory,
                          Cambridge, MA 02138, U.S.A.
			  
             Prepared using the Tamkin Foundation Computer Network

                              MPC at CFA.HARVARD.EDU
            URL https://www.minorplanetcenter.net/    ISSN 1523-6714

                                   2023 TK10                                    


Observations:
     K23T10K*KC2023 10 10.25120 01 37 05.01 -24 33 55.4                VET240W94
     K23T10K KC2023 10 10.25747 01 37 05.15 -24 33 25.1          19.9 GVET240W94
     K23T10K KC2023 10 10.26375 01 37 05.08 -24 32 55.6          19.7 GVET240W94
     K23T10K KC2023 10 10.29390 01 37 05.42 -24 30 32.9          20.0 GVET240X10
     K23T10K KC2023 10 10.29950 01 37 05.47 -24 30 05.7                VET240X10
     K23T10K KC2023 10 10.30508 01 37 05.49 -24 29 40.5          19.9 GVET240X10
     K23T10K KC2023 10 10.34716601 37 08.152-24 27 06.62         21.10GVET240I52
     K23T10K KC2023 10 10.34930001 37 08.195-24 26 56.72         20.57GVET240I52
     K23T10K KC2023 10 11.18294 01 37 29.98 -23 22 05.4          19.8 GVET240X10
     K23T10K KC2023 10 11.18856 01 37 29.95 -23 21 39.9          19.4 GVET240X10
     K23T10K KC2023 10 11.19414 01 37 30.01 -23 21 14.4                VET240X10
     K23T10K KC2023 10 11.25654201 37 32.27 -23 17 10.2          20.5 GXET240858
     K23T10K KC2023 10 11.26690801 37 32.33 -23 16 24.3          20.3 GXET240858
     K23T10K KB2023 10 11.98501601 37 48.26 -22 22 34.6          21.0 GVET240I93
     K23T10K KB2023 10 11.99727201 37 48.30 -22 21 39.8          20.7 GVET240I93
     K23T10K KC2023 10 14.21229 01 38 29.91 -19 42 06.7          19.9 GVET240X10
     K23T10K KC2023 10 14.21791 01 38 29.91 -19 41 42.5          20.5 GVET240X10
     K23T10K KC2023 10 14.22348 01 38 29.87 -19 41 20.0                VET240X10

Observer details:
858 Tebbutt Observatory, Edgewood.  Observer F. B. Zoltowski.  0.51-m f/8.1
    Schmidt-Cassegrain + CCD.
I52 Steward Observatory, Mt. Lemmon Station.  Observer J. B. Fazekas.
    Measurers E. C. Beshore, D. Fay, J. B. Fazekas, D. C. Fuls, A. R. Gibbs,
    A. D. Grauer, H. Groeller, J. K. Hogan, R. A. Kowalski, S. M. Larson, G.
    J. Leonard, D. Rankin, R. L. Seaman, F. C. Shelly, K. W. Wierzchos.  1.0-m
    prime focus + CCD.
I93 St Pardon de Conques.  Observer F. Losse.  0.40-m f/3.7 reflector + CMO.
W94 MAP, San Pedro de Atacama.  Observers A. Maury, G. Attard.  Measurers D.
    Parrott, F. Signoret, J.-M. Mari.  0.28-m f/2.2 Schmidt astrograph + CCD.
X10 OVTLN, San Pedro de Atacama.  Observers A. Maury, G. Attard, F. Signoret.
    Measurers A. Maury, G. Attard, D. Parrott, J.-M. Mari.  0.50-m f/4
    reflector + CCD.

Orbital elements:
2023 TK10                                                Earth MOID = 0.1178 AU
Epoch 2023 Sept. 13.0 TT = JDT 2460200.5                Veres                   
M   3.52779              (2000.0)            P               Q                  
n   0.31059330     Peri.  270.03058     +0.90060364     +0.42399006             
a   2.1594409      Node    64.88283     -0.34480954     +0.83091065             
e   0.5115109      Incl.    6.06285     -0.26461191     +0.36030531             
P   3.17           H   22.79          G   0.15           U   9                  
Residuals in seconds of arc
231010 W94  1.2-  0.6-    231010 I52  0.1-  0.1+    231011 858  0.1-  0.8-
231010 W94  0.2+  0.0     231010 I52  0.3+  0.0     231011 I93  0.2+  0.1+
231010 W94  1.3-  0.2-    231011 X10  0.3-  0.8-    231011 I93  0.2-  0.5+
231010 X10  0.3+  0.4-    231011 X10  1.0-  0.8-    231014 X10  0.2+  0.5-
231010 X10  0.3+  0.2+    231011 X10  0.4-  0.7-    231014 X10  0.3+  0.3+
231010 X10  0.1-  1.1-    231011 858  0.1-  0.1+    231014 X10  0.1-  0.4-

Ephemeris:
2023 TK10                a,e,i = 2.16, 0.51, 6                   q = 1.0549
Date    TT    R. A. (2000) Decl.     Delta      r    Elong.  Phase     V
2023 09 14    00 19 10.0 -68 22 48   0.1263  1.0652   114.7    59.1    20.6
...
2023 09 29    01 26 44.7 -41 38 11   0.1407  1.1039   133.7    41.0    20.4
...
2023 10 07    01 35 20.0 -29 00 25   0.1620  1.1347   144.0    31.2    20.4
...
2023 10 13    01 38 08.5 -21 07 45   0.1840  1.1619   150.6    24.9    20.6
2023 10 14    01 38 26.6 -19 56 57   0.1882  1.1667   151.6    24.0    20.6
2023 10 15    01 38 42.8 -18 48 20   0.1925  1.1716   152.5    23.2    20.7
...
2023 10 21    01 39 52.8 -12 39 53   0.2214  1.2025   156.9    18.9    20.9
...
2023 10 29    01 41 05.8 -06 08 57   0.2677  1.2475   159.3    16.3    21.3
...
2023 11 13    01 45 02.5 +02 20 59   0.3784  1.3403   154.0    18.9    22.3

M. P. C. Staff               (C) Copyright 2023 MPC           M.P.E.C. 2023-T240




More information about the Iaude mailing list